Regional Weather Roundup
Issued by NWS

Home | Current Version | Previous Version | Graphics & Text | Print | Product List | Glossary On
Versions: 1 2 3 4 5 6 7 8 9 10 11 12 13 14 15 16 17 18 19 20 21 22 23 24 25 26 27 28 29 30 31 32 33 34 35 36 37 38 39 40 41 42 43 44 45 46 47 48 49 50
000
ASUS43 KMPX 241310
RWRMN
WEATHER ROUNDUP FOR MINNESOTA
NATIONAL WEATHER SERVICE TWIN CITIES/CHANHASSEN MN
700 AM CST TUE JAN 24 2017


NOTE: "FAIR" INDICATES FEW OR NO CLOUDS BELOW 12,000 FEET WITH NO
SIGNIFICANT WEATHER AND/OR OBSTRUCTIONS TO VISIBILITY. N/A MEANS
CURRENT SKY AND/OR WEATHER CONDITIONS ARE NOT AVAILABLE.

MNZ060>063-068>070-241400-
   Twin Cities Metro

CITY           SKY/WX    TMP DP  RH WIND       PRES   REMARKS
TWIN CITIES    CLOUDY    32  25  75 N3        29.89R
ST PAUL        CLOUDY    32  27  81 CALM      29.91R
CRYSTAL        CLOUDY    31  23  72 NE5       29.88R WCI  26
BLAINE         CLOUDY    34  28  80 N6        29.88S WCI  29
LAKEVILLE      CLOUDY    30  28  93 N6        29.88S WCI  24
EDEN PRAIRIE   CLOUDY    32  25  75 NW3       29.88R
SOUTH ST PAUL  CLOUDY    32  28  86 N3        29.89R
LAKE ELMO      CLOUDY    32  28  86 CALM      29.90R
$$
MNZ001>005-007-008-013>017-022>024-027-028-241400-
   Northwest Minnesota

CITY           SKY/WX    TMP DP  RH WIND       PRES   REMARKS
BEMIDJI        CLOUDY    27  24  87 W10       29.85S WCI  17
HALLOCK        CLOUDY    27  23  86 SW10      29.85R WCI  17
ROSEAU         CLOUDY    25  21  86 SW8       29.84S WCI  16
WARROAD        CLOUDY    25  19  80 S5        29.85R WCI  19
THIEF RVR FALL CLOUDY    24  20  84 SW9       29.87S WCI  14
CROOKSTON      CLOUDY    25  21  86 W9        29.89S WCI  15
FOSSTON        CLOUDY    23  19  86 W8        29.87S WCI  14
DETROIT LAKES  CLOUDY    30  27  86 CALM      29.88R
MOORHEAD       CLOUDY    28  25  86 N8        29.90R WCI  20
PARK RAPIDS    CLOUDY    28  21  75 NW3       29.85S
MAHNOMEN       CLOUDY    26  23  89 NW7       29.87R WCI  18
$$
MNZ006-009>011-018-025>026-241400-
   North Central Minnesota

CITY           SKY/WX    TMP DP  RH WIND       PRES   REMARKS
BAUDETTE       CLOUDY    24  20  84 SW6       29.84S WCI  17
FLAG ISLAND    CLOUDY    25  21  86 S7        29.83R WCI  17
INTL FALLS     CLOUDY    28  22  78 VRB6      29.84S WCI  22
WASKISH        CLOUDY    27  25  93 W13       29.85S WCI  16
BIG FORK       CLOUDY    28  23  80 W3        29.85R
LONGVILLE      CLOUDY    28  25  86 CALM      29.85S
GRAND RAPIDS   CLOUDY    29  24  82 W6        29.87R WCI  23
CRANE LAKE     CLOUDY    28  25  86 CALM      29.86R
ORR            CLOUDY    28  23  80 CALM      29.82R
COOK           CLOUDY    28  25  86 SW3       29.84R
WALKER         CLOUDY    27  22  83 CALM      29.85S
$$
MNZ012-019>021-037-241400-
   Northeast Minnesota

CITY           SKY/WX    TMP DP  RH WIND       PRES   REMARKS
DULUTH         CLOUDY    31  25  78 NW5       29.83R WCI  26
ELY            CLOUDY    28  28 100 CALM      29.82S
HIBBING        CLOUDY    29  24  82 NW5       29.84R WCI  24
EVELETH        CLOUDY    32  26  78 W3        29.85R
DULUTH HARBOR  CLOUDY    34  28  80 NW6       29.88R WCI  29
TWO HARBORS    CLOUDY    34  28  80 CALM      29.82S
SILVER BAY     CLOUDY    34  28  80 CALM      29.82S
G MARAIS ARPRT CLOUDY    30  27  86 CALM      29.80R
$$
MNZ029>031-032-039>041-046>048-054>057-064-241400-
   West Central Minnesota

CITY           SKY/WX    TMP DP  RH WIND       PRES   REMARKS
FERGUS FALLS   CLOUDY    28  25  86 CALM      29.92S
WHEATON        LGT SNOW  30  28  93 N3        29.91R
MORRIS         CLOUDY    30  28  93 CALM      29.87R
ALEXANDRIA     CLOUDY    30  25  81 CALM      29.87R
ELBOW LAKE     CLOUDY    30  28  93 N5        29.88R FOG     WCI  25
WADENA         CLOUDY    27  25  93 CALM      29.86S
GLENWOOD       CLOUDY    28  27  93 CALM      29.87S
APPLETON       CLOUDY    32  28  86 CALM      29.88S
ORTONVILLE     CLOUDY    30  27  86 CALM      29.87S
MADISON        CLOUDY    34  30  86 CALM      29.88R
WILLMAR        CLOUDY    30  27  86 CALM      29.89S
$$
MNZ033>034-036-042>043-049>051-058-059-241400-
   Central Minnesota

CITY           SKY/WX    TMP DP  RH WIND       PRES   REMARKS
ST CLOUD       CLOUDY    31  25  78 CALM      29.88R
SAUK CENTRE    CLOUDY    29  26  87 CALM      29.89R
PAYNESVILLE    CLOUDY    30  29  96 CALM      29.89R
AITKIN         CLOUDY    32  25  74 CALM      29.86R
PINE RIVER     CLOUDY    28  25  86 NW5       29.90R WCI  23
BRAINERD       CLOUDY    30  24  78 NW5       29.87R WCI  25
STAPLES        CLOUDY    28  25  86 NW3       29.87R
LONG PRAIRIE   CLOUDY    30  27  86 CALM      29.88R
LITTLE FALLS   CLOUDY    30  25  80 CALM      29.89R
LITCHFIELD     CLOUDY    30  27  86 CALM      29.89R
BUFFALO        CLOUDY    31  25  79 CALM      29.89R
MAPLE LAKE     CLOUDY    32  28  84 CALM      29.89R
HUTCHINSON     CLOUDY    31  28  86 NE5       29.89R WCI  27
$$
MNZ037-044-045-052-053-241400-
   East Central Minnesota

CITY           SKY/WX    TMP DP  RH WIND       PRES   REMARKS
PRINCETON      CLOUDY    32  27  80 CALM      29.88S
MORA           CLOUDY    32  27  80 CALM      29.89R
CAMBRIDGE      CLOUDY    34  25  69 CALM      29.86S
RUSH CITY      CLOUDY    32  27  80 CALM      29.88R
MOOSE LAKE     CLOUDY    32  27  80 W3        29.85R
HINCKLEY       CLOUDY    32  28  86 W3        29.88R
CLOQUET        CLOUDY    30  27  86 CALM      29.84R
MCGREGOR       CLOUDY    32  27  80 NW5       29.87R WCI  27
$$
MNZ071>073-080-081-089-090-097-098-241400-
   Southwest Minnesota

CITY           SKY/WX    TMP DP  RH WIND       PRES   REMARKS
MONTEVIDEO     CLOUDY    30  28  93 E6        29.89S WCI  24
GRANITE FALLS  CLOUDY    32  29  89 NE3       29.89R
CANBY          CLOUDY    32  28  88 CALM      29.87S
MARSHALL       CLOUDY    30  27  88 E7        29.87R WCI  23
REDWOOD FALLS  CLOUDY    32  26  78 CALM      29.88R
OLIVIA         CLOUDY    32  28  86 E3        29.88R
PIPESTONE      CLOUDY    30  30 100 E10       29.80S WCI  21
WINDOM         CLOUDY    30  28  93 NE7       29.84S WCI  23
WORTHINGTON    CLOUDY    30  28  92 E10       29.83R WCI  21
JACKSON        CLOUDY    30  28  93 E8        29.85R WCI  23
TRACY          CLOUDY    31  29  92 E7        29.86R WCI  24
SLAYTON        CLOUDY    29  29  97 NE8       29.83S FOG     WCI  21
$$
MNZ065>067-074>077-082>085-091>093-241400-
   South Central Minnesota

CITY           SKY/WX    TMP DP  RH WIND       PRES   REMARKS
MANKATO        CLOUDY    31  26  82 SE3       29.89R
NEW ULM        CLOUDY    30  27  86 CALM      29.88R
ST JAMES       CLOUDY    30  28  93 N6        29.88S WCI  24
FAIRMONT       CLOUDY    31  27  85 NE7       29.86F WCI  24
GLENCOE        CLOUDY    32  30  91 N3        29.88R
OWATONNA       CLOUDY    30  27  86 CALM      29.87S
WASECA         CLOUDY    32  28  86 CALM      29.89R
ALBERT LEA     CLOUDY    30  28  93 N7        29.86R WCI  23
$$
MNZ078>079-086>088-094>096-241400-
   Southeast Minnesota

CITY           SKY/WX    TMP DP  RH WIND       PRES   REMARKS
ROCHESTER      CLOUDY    29  27  92 N3        29.86S
RED WING       CLOUDY    34  27  75 CALM      29.88R
STANTON        CLOUDY    32  29  86 CALM      29.86S
DODGE CENTER   CLOUDY    28  27  93 MISG      29.86S
WINONA         CLOUDY    34  30  86 NW5       29.90R WCI  30
AUSTIN         CLOUDY    30  27  86 NE3       29.86S
PRESTON        CLOUDY    29  26  88 NE5       29.87R WCI  24
$$
ABBREVIATIONS USED IN REMARKS
   TC - TEMPERATURES IN CELSIUS
  WCI - WIND CHILL INDEX
   HX - HEAT INDEX
  VSB - VISIBILITY
$$




USA.gov is the U.S. government's official web portal to all federal, state and local government web resources and services.